Location: Albany
(35.0170°S, 117.8920°E)
Time: 02:57:11
(UTC+08:00)

Vanguard 1 - Pass Details

Date: 02 February 2021
Orbit: 649 x 3833 km, 34.2° (Epoch: 26 February)

Event Time Altitude Azimuth Distance (km) Brightness Sun altitude
Rises 00:00:36 0° 285° (WNW) 5,449 13.8 -37.8°
Reaches altitude 10° 00:04:54 10° 286° (WNW) 3,942 13.0 -37.9°
Enters shadow 00:04:55 10° 286° (WNW) 3,936 13.0 -37.9°
Maximum altitude 00:14:06 76° 9° (N) 1,084 - -38.0°
Drops below altitude 10° 00:19:27 10° 94° (E) 2,362 - -38.1°
Sets 00:21:28 0° 96° (E) 3,147 - -38.1°
